Time,TemperatureF,DewpointF,PressureIn,WindDirection,WindDirectionDegrees,WindSpeedMPH,WindSpeedGustMPH,Humidity,HourlyPrecipIn,Conditions,Clouds,dailyrainin,SoftwareType,DateUTC
2013-08-28 00:00:00,72.8,66.6,30.00,WSW,245,2.0,2.0,81,0.00,,---,0.00,VWS V14.01,2013-08-28 04:00:00,
2013-08-28 00:30:00,72.8,67.3,30.00,WSW,237,1.0,3.0,83,0.00,,---,0.00,VWS V14.01,2013-08-28 04:30:00,
2013-08-28 01:00:00,73.8,63.8,30.00,WSW,253,0.0,1.0,71,0.00,,---,0.00,VWS V14.01,2013-08-28 05:00:00,
2013-08-28 01:10:00,73.7,64.1,30.00,WSW,253,0.0,0.0,72,0.00,,---,0.00,VWS V14.01,2013-08-28 05:10:00,
2013-08-28 01:11:00,73.7,64.1,30.00,WSW,253,0.0,0.0,72,0.00,,---,0.00,VWS V14.01,2013-08-28 05:11:00,
2013-08-28 01:16:00,73.7,64.1,30.00,WSW,253,0.0,0.0,72,0.00,,---,0.00,VWS V14.01,2013-08-28 05:16:00,
2013-08-28 01:21:00,73.7,64.1,30.00,West,281,0.0,0.0,72,0.00,,---,0.00,VWS V14.01,2013-08-28 05:21:00,
2013-08-28 01:26:00,73.7,64.1,29.99,West,278,0.0,0.0,72,0.00,,---,0.00,VWS V14.01,2013-08-28 05:26:00,
2013-08-28 01:30:00,73.7,64.1,29.99,West,274,0.0,0.0,72,0.00,,---,0.00,VWS V14.01,2013-08-28 05:30:00,
2013-08-28 01:31:00,73.7,64.1,29.99,West,273,0.0,0.0,72,0.00,,---,0.00,VWS V14.01,2013-08-28 05:31:00,
2013-08-28 01:36:00,73.8,64.2,29.99,West,273,0.0,0.0,72,0.00,,---,0.00,VWS V14.01,2013-08-28 05:36:00,
2013-08-28 01:41:00,73.1,63.5,29.99,West,277,2.0,3.0,72,0.00,,---,0.00,VWS V14.01,2013-08-28 05:41:00,
2013-08-28 01:46:00,73.1,66.9,29.99,WSW,254,1.0,5.0,81,0.00,,---,0.00,VWS V14.01,2013-08-28 05:46:00,
2013-08-28 01:51:00,73.2,67.0,29.99,SW,225,2.0,5.0,81,0.00,,---,0.00,VWS V14.01,2013-08-28 05:51:00,
2013-08-28 01:56:00,73.1,66.9,29.99,WSW,257,2.0,5.0,81,0.00,,---,0.00,VWS V14.01,2013-08-28 05:56:00,
2013-08-28 02:00:00,73.1,66.9,29.98,WSW,237,1.0,5.0,81,0.00,,---,0.00,VWS V14.01,2013-08-28 06:00:00,
2013-08-28 02:01:00,73.1,66.9,29.98,SW,229,2.0,3.0,81,0.00,,---,0.00,VWS V14.01,2013-08-28 06:01:00,
2013-08-28 02:06:00,73.1,66.9,29.98,SW,229,1.0,3.0,81,0.00,,---,0.00,VWS V14.01,2013-08-28 06:06:00,
2013-08-28 02:11:00,73.0,66.8,29.99,SW,232,1.0,3.0,81,0.00,,---,0.00,VWS V14.01,2013-08-28 06:11:00,
2013-08-28 02:16:00,72.9,67.1,29.98,WSW,250,2.0,3.0,82,0.00,,---,0.00,VWS V14.01,2013-08-28 06:16:00,
2013-08-28 02:21:00,72.9,67.1,29.98,WSW,252,1.0,3.0,82,0.00,,---,0.00,VWS V14.01,2013-08-28 06:21:00,
2013-08-28 02:26:00,72.7,66.9,29.98,WSW,248,1.0,3.0,82,0.00,,---,0.00,VWS V14.01,2013-08-28 06:26:00,
2013-08-28 02:30:00,72.6,66.8,29.98,WSW,258,2.0,3.0,82,0.00,,---,0.00,VWS V14.01,2013-08-28 06:30:00,
2013-08-28 02:31:00,72.6,66.8,29.98,SW,219,1.0,2.0,82,0.00,,---,0.00,VWS V14.01,2013-08-28 06:31:00,
2013-08-28 02:36:00,72.6,67.2,29.98,WSW,238,1.0,2.0,83,0.00,,---,0.00,VWS V14.01,2013-08-28 06:36:00,
2013-08-28 02:41:00,72.4,66.9,29.98,WSW,256,2.0,3.0,83,0.00,,---,0.00,VWS V14.01,2013-08-28 06:41:00,
2013-08-28 02:46:00,72.3,66.8,29.98,WSW,252,1.0,3.0,83,0.00,,---,0.00,VWS V14.01,2013-08-28 06:46:00,
2013-08-28 02:51:00,72.2,66.8,29.98,WSW,248,1.0,3.0,83,0.00,,---,0.00,VWS V14.01,2013-08-28 06:51:00,
2013-08-28 02:56:00,72.1,67.0,29.98,WSW,245,1.0,3.0,84,0.00,,---,0.00,VWS V14.01,2013-08-28 06:56:00,
2013-08-28 03:00:00,72.0,66.9,29.97,SW,233,1.0,3.0,84,0.00,,---,0.00,VWS V14.01,2013-08-28 07:00:00,
2013-08-28 03:01:00,72.0,66.9,29.97,WSW,241,1.0,1.0,84,0.00,,---,0.00,VWS V14.01,2013-08-28 07:01:00,
2013-08-28 03:05:00,72.0,67.2,29.97,WSW,246,1.0,2.0,85,0.00,,---,0.00,VWS V14.01,2013-08-28 07:05:00,
2013-08-28 03:10:00,71.9,67.2,29.97,West,264,2.0,2.0,85,0.00,,---,0.00,VWS V14.01,2013-08-28 07:10:00,
2013-08-28 03:15:00,71.9,67.2,29.97,WSW,238,1.0,2.0,85,0.00,,---,0.00,VWS V14.01,2013-08-28 07:15:00,
2013-08-28 03:20:00,71.8,67.1,29.96,SW,231,0.0,2.0,85,0.00,,---,0.00,VWS V14.01,2013-08-28 07:20:00,
2013-08-28 03:25:00,71.7,67.3,29.97,SW,234,0.0,2.0,86,0.00,,---,0.00,VWS V14.01,2013-08-28 07:25:00,
2013-08-28 03:30:00,71.6,67.2,29.97,WSW,237,0.0,0.0,86,0.00,,---,0.00,VWS V14.01,2013-08-28 07:30:00,
2013-08-28 03:35:00,71.6,67.2,29.97,SW,226,0.0,1.0,86,0.00,,---,0.00,VWS V14.01,2013-08-28 07:35:00,
2013-08-28 03:40:00,71.4,67.0,29.97,SW,226,0.0,1.0,86,0.00,,---,0.00,VWS V14.01,2013-08-28 07:40:00,
2013-08-28 03:45:00,71.3,67.2,29.96,SW,226,0.0,1.0,87,0.00,,---,0.00,VWS V14.01,2013-08-28 07:45:00,
2013-08-28 03:50:00,71.1,67.0,29.96,SW,232,0.0,1.0,87,0.00,,---,0.00,VWS V14.01,2013-08-28 07:50:00,
2013-08-28 03:55:00,71.0,67.3,29.96,SW,234,0.0,1.0,88,0.00,,---,0.00,VWS V14.01,2013-08-28 07:55:00,
2013-08-28 04:00:00,70.9,67.2,29.96,SW,235,0.0,0.0,88,0.00,,---,0.00,VWS V14.01,2013-08-28 08:00:00,
2013-08-28 04:05:00,70.7,67.0,29.96,SW,227,0.0,0.0,88,0.00,,---,0.00,VWS V14.01,2013-08-28 08:05:00,
2013-08-28 04:10:00,70.7,67.0,29.96,SW,227,0.0,0.0,88,0.00,,---,0.00,VWS V14.01,2013-08-28 08:10:00,
2013-08-28 04:15:00,70.5,67.1,29.96,SW,227,0.0,0.0,89,0.00,,---,0.00,VWS V14.01,2013-08-28 08:15:00,
2013-08-28 04:20:00,70.4,67.0,29.95,SW,224,0.0,0.0,89,0.00,,---,0.00,VWS V14.01,2013-08-28 08:20:00,
2013-08-28 04:25:00,70.4,67.3,29.96,WSW,238,0.0,0.0,90,0.00,,---,0.00,VWS V14.01,2013-08-28 08:25:00,
2013-08-28 04:30:00,70.4,67.3,29.96,WSW,240,0.0,0.0,90,0.00,,---,0.00,VWS V14.01,2013-08-28 08:30:00,
2013-08-28 04:35:00,70.3,67.2,29.96,WSW,240,0.0,0.0,90,0.00,,---,0.00,VWS V14.01,2013-08-28 08:35:00,
2013-08-28 04:40:00,70.3,67.2,29.95,WSW,241,1.0,2.0,90,0.00,,---,0.00,VWS V14.01,2013-08-28 08:40:00,
2013-08-28 04:45:00,70.4,67.7,29.96,WSW,238,1.0,2.0,91,0.00,,---,0.00,VWS V14.01,2013-08-28 08:45:00,
2013-08-28 04:50:00,70.6,67.8,29.95,SW,234,2.0,3.0,91,0.00,,---,0.00,VWS V14.01,2013-08-28 08:50:00,
2013-08-28 04:55:00,70.7,67.9,29.96,WSW,256,1.0,4.0,91,0.00,,---,0.00,VWS V14.01,2013-08-28 08:55:00,
2013-08-28 05:00:00,71.1,68.3,29.96,SSW,202,2.0,3.0,91,0.00,,---,0.00,VWS V14.01,2013-08-28 09:00:00,
2013-08-28 05:05:00,71.3,68.5,29.96,SW,227,1.0,3.0,91,0.00,,---,0.00,VWS V14.01,2013-08-28 09:05:00,
2013-08-28 05:10:00,71.4,68.6,29.96,WSW,250,1.0,3.0,91,0.00,,---,0.00,VWS V14.01,2013-08-28 09:10:00,
2013-08-28 05:15:00,71.6,68.8,29.96,WSW,257,0.0,3.0,91,0.00,,---,0.00,VWS V14.01,2013-08-28 09:15:00,
2013-08-28 05:20:00,71.7,68.9,29.96,WSW,247,3.0,3.0,91,0.00,,---,0.00,VWS V14.01,2013-08-28 09:20:00,
2013-08-28 05:25:00,71.8,69.0,29.97,WNW,292,0.0,4.0,91,0.00,,---,0.00,VWS V14.01,2013-08-28 09:25:00,
2013-08-28 05:30:00,71.9,68.8,29.96,WNW,288,1.0,2.0,90,0.00,,---,0.00,VWS V14.01,2013-08-28 09:30:00,
2013-08-28 05:33:00,71.9,68.8,29.97,WSW,245,2.0,5.0,90,0.00,,---,0.00,VWS V14.01,2013-08-28 09:33:00,
2013-08-28 05:38:00,71.9,68.8,29.97,WNW,290,2.0,5.0,90,0.00,,---,0.00,VWS V14.01,2013-08-28 09:38:00,
2013-08-28 05:43:00,71.9,68.8,29.97,SW,234,2.0,5.0,90,0.00,,---,0.00,VWS V14.01,2013-08-28 09:43:00,
2013-08-28 05:48:00,72.0,68.9,29.96,West,277,4.0,5.0,90,0.00,,---,0.00,VWS V14.01,2013-08-28 09:48:00,
2013-08-28 05:53:00,72.1,69.0,29.96,SW,225,5.0,5.0,90,0.00,,---,0.00,VWS V14.01,2013-08-28 09:53:00,
2013-08-28 05:58:00,72.1,69.0,29.96,West,259,3.0,7.0,90,0.00,,---,0.00,VWS V14.01,2013-08-28 09:58:00,
2013-08-28 06:00:00,72.1,69.0,29.96,West,259,3.0,7.0,90,0.00,,---,0.00,VWS V14.01,2013-08-28 10:00:00,
2013-08-28 06:03:00,72.7,66.2,29.96,West,278,0.0,3.0,80,0.00,,---,0.00,VWS V14.01,2013-08-28 10:03:00,
2013-08-28 06:08:00,72.6,66.1,29.96,WSW,250,0.0,3.0,80,0.00,,---,0.00,VWS V14.01,2013-08-28 10:08:00,
2013-08-28 06:13:00,72.6,66.1,29.96,WSW,237,0.0,3.0,80,0.00,,---,0.00,VWS V14.01,2013-08-28 10:13:00,
2013-08-28 06:18:00,72.6,66.4,29.96,West,281,0.0,3.0,81,0.00,,---,0.00,VWS V14.01,2013-08-28 10:18:00,
2013-08-28 06:23:00,72.5,66.3,29.97,NW,306,0.0,3.0,81,0.00,,---,0.00,VWS V14.01,2013-08-28 10:23:00,
2013-08-28 06:28:00,72.5,66.3,29.97,West,271,0.0,3.0,81,0.00,,---,0.00,VWS V14.01,2013-08-28 10:28:00,
2013-08-28 06:30:00,72.4,66.2,29.97,NW,309,0.0,3.0,81,0.00,,---,0.00,VWS V14.01,2013-08-28 10:30:00,
2013-08-28 06:33:00,72.3,66.2,29.97,West,281,0.0,0.0,81,0.00,,---,0.00,VWS V14.01,2013-08-28 10:33:00,
2013-08-28 06:38:00,72.3,66.2,29.97,West,281,0.0,0.0,81,0.00,,---,0.00,VWS V14.01,2013-08-28 10:38:00,
2013-08-28 06:43:00,72.2,66.1,29.97,West,270,0.0,0.0,81,0.00,,---,0.00,VWS V14.01,2013-08-28 10:43:00,
2013-08-28 06:48:00,72.2,66.4,29.97,West,276,0.0,0.0,82,0.00,,---,0.00,VWS V14.01,2013-08-28 10:48:00,
2013-08-28 06:53:00,72.2,66.4,29.97,West,276,0.0,0.0,82,0.00,,---,0.00,VWS V14.01,2013-08-28 10:53:00,
2013-08-28 06:58:00,72.2,66.4,29.97,West,276,0.0,0.0,82,0.00,,---,0.00,VWS V14.01,2013-08-28 10:58:00,
2013-08-28 07:00:00,72.2,66.4,29.97,West,276,0.0,0.0,82,0.00,,---,0.00,VWS V14.01,2013-08-28 11:00:00,
2013-08-28 07:03:00,72.2,66.4,29.97,West,276,0.0,0.0,82,0.00,,---,0.00,VWS V14.01,2013-08-28 11:03:00,
2013-08-28 07:08:00,72.2,66.4,29.98,West,276,0.0,0.0,82,0.00,,---,0.00,VWS V14.01,2013-08-28 11:08:00,
2013-08-28 07:13:00,72.2,66.4,29.98,West,276,0.0,0.0,82,0.00,,---,0.00,VWS V14.01,2013-08-28 11:13:00,
2013-08-28 07:18:00,72.2,66.4,29.97,West,276,0.0,0.0,82,0.00,,---,0.00,VWS V14.01,2013-08-28 11:18:00,
2013-08-28 07:23:00,72.2,66.4,29.97,West,276,0.0,0.0,82,0.00,,---,0.00,VWS V14.01,2013-08-28 11:23:00,
2013-08-28 07:28:00,72.2,66.4,29.98,West,276,0.0,0.0,82,0.00,,---,0.00,VWS V14.01,2013-08-28 11:28:00,
2013-08-28 07:30:00,72.2,66.4,29.98,West,276,0.0,0.0,82,0.00,,---,0.00,VWS V14.01,2013-08-28 11:30:00,
2013-08-28 07:33:00,72.2,66.4,29.98,West,276,0.0,0.0,82,0.00,,---,0.00,VWS V14.01,2013-08-28 11:33:00,
2013-08-28 07:38:00,72.2,66.4,29.97,West,276,0.0,0.0,82,0.00,,---,0.00,VWS V14.01,2013-08-28 11:38:00,
2013-08-28 07:43:00,72.2,66.4,29.98,West,276,0.0,0.0,82,0.00,,---,0.00,VWS V14.01,2013-08-28 11:43:00,
2013-08-28 07:48:00,72.2,66.4,29.98,West,276,0.0,0.0,82,0.00,,---,0.00,VWS V14.01,2013-08-28 11:48:00,
2013-08-28 07:53:00,72.2,66.4,29.98,West,276,0.0,0.0,82,0.00,,---,0.00,VWS V14.01,2013-08-28 11:53:00,
2013-08-28 07:58:00,72.2,66.4,29.98,West,276,0.0,0.0,82,0.00,,---,0.00,VWS V14.01,2013-08-28 11:58:00,
2013-08-28 08:00:00,72.2,66.4,29.98,West,276,0.0,0.0,82,0.00,,---,0.00,VWS V14.01,2013-08-28 12:00:00,
2013-08-28 08:03:00,72.2,66.4,29.98,West,276,0.0,0.0,82,0.00,,---,0.00,VWS V14.01,2013-08-28 12:03:00,
2013-08-28 08:08:00,72.2,66.4,29.98,West,276,0.0,0.0,82,0.00,,---,0.00,VWS V14.01,2013-08-28 12:08:00,
2013-08-28 08:13:00,72.2,66.4,29.98,West,276,0.0,0.0,82,0.00,,---,0.00,VWS V14.01,2013-08-28 12:13:00,
2013-08-28 08:18:00,72.2,66.4,29.98,West,276,0.0,0.0,82,0.00,,---,0.00,VWS V14.01,2013-08-28 12:18:00,
2013-08-28 08:23:00,72.2,66.4,29.97,West,276,0.0,0.0,82,0.00,,---,0.00,VWS V14.01,2013-08-28 12:23:00,
2013-08-28 08:28:00,72.2,66.4,29.98,West,276,0.0,0.0,82,0.00,,---,0.00,VWS V14.01,2013-08-28 12:28:00,
2013-08-28 08:30:00,72.2,66.4,29.98,West,276,0.0,0.0,82,0.00,,---,0.00,VWS V14.01,2013-08-28 12:30:00,
2013-08-28 08:33:00,72.2,66.4,29.98,West,276,0.0,0.0,82,0.00,,---,0.00,VWS V14.01,2013-08-28 12:33:00,
2013-08-28 08:38:00,72.2,66.4,29.98,West,276,0.0,0.0,82,0.00,,---,0.00,VWS V14.01,2013-08-28 12:38:00,
2013-08-28 08:43:00,72.2,66.4,29.98,West,276,0.0,0.0,82,0.00,,---,0.00,VWS V14.01,2013-08-28 12:43:00,
2013-08-28 08:48:00,72.2,66.4,29.98,West,276,0.0,0.0,82,0.00,,---,0.00,VWS V14.01,2013-08-28 12:48:00,
2013-08-28 08:55:00,0.0,0.0,29.98,North,0,0.0,0.0,0,0.00,,---,0.00,VWS V14.01,2013-08-28 12:55:00,
2013-08-28 09:00:00,0.0,0.0,29.98,North,0,0.0,0.0,0,0.00,,---,0.00,VWS V14.01,2013-08-28 13:00:00,
2013-08-28 09:05:00,0.0,0.0,29.98,North,0,0.0,0.0,0,0.00,,---,0.00,VWS V14.01,2013-08-28 13:05:00,
2013-08-28 09:10:00,0.0,0.0,29.97,North,0,0.0,0.0,0,0.00,,---,0.00,VWS V14.01,2013-08-28 13:10:00,
2013-08-28 09:15:00,0.0,0.0,29.98,North,0,0.0,0.0,0,0.00,,---,0.00,VWS V14.01,2013-08-28 13:15:00,
2013-08-28 09:20:00,0.0,0.0,29.98,North,0,0.0,0.0,0,0.00,,---,0.00,VWS V14.01,2013-08-28 13:20:00,
2013-08-28 09:25:00,0.0,0.0,29.98,North,0,0.0,0.0,0,0.00,,---,0.00,VWS V14.01,2013-08-28 13:25:00,
2013-08-28 09:30:00,0.0,0.0,29.97,North,0,0.0,0.0,0,0.00,,---,0.00,VWS V14.01,2013-08-28 13:30:00,
2013-08-28 09:35:00,0.0,0.0,29.97,North,0,0.0,0.0,0,0.00,,---,0.00,VWS V14.01,2013-08-28 13:35:00,
2013-08-28 09:40:00,0.0,0.0,29.98,North,0,0.0,0.0,0,0.00,,---,0.00,VWS V14.01,2013-08-28 13:40:00,
2013-08-28 09:45:00,0.0,0.0,29.98,North,0,0.0,0.0,0,0.00,,---,0.00,VWS V14.01,2013-08-28 13:45:00,
2013-08-28 09:50:00,0.0,0.0,29.98,North,0,0.0,0.0,0,0.00,,---,0.00,VWS V14.01,2013-08-28 13:50:00,
2013-08-28 09:55:00,0.0,0.0,29.99,North,0,0.0,0.0,0,0.00,,---,0.00,VWS V14.01,2013-08-28 13:55:00,
2013-08-28 10:00:00,0.0,0.0,29.98,North,0,0.0,0.0,0,0.00,,---,0.00,VWS V14.01,2013-08-28 14:00:00,
2013-08-28 10:05:00,0.0,0.0,29.98,North,0,0.0,0.0,0,0.00,,---,0.00,VWS V14.01,2013-08-28 14:05:00,
2013-08-28 10:10:00,0.0,0.0,29.98,North,0,0.0,0.0,0,0.00,,---,0.00,VWS V14.01,2013-08-28 14:10:00,
2013-08-28 10:15:00,0.0,0.0,29.98,North,0,0.0,0.0,0,0.00,,---,0.00,VWS V14.01,2013-08-28 14:15:00,
2013-08-28 10:20:00,0.0,0.0,29.99,North,0,0.0,0.0,0,0.00,,---,0.00,VWS V14.01,2013-08-28 14:20:00,
2013-08-28 10:25:00,0.0,0.0,29.98,North,0,0.0,0.0,0,0.00,,---,0.00,VWS V14.01,2013-08-28 14:25:00,
2013-08-28 10:30:00,0.0,0.0,29.98,North,0,0.0,0.0,0,0.00,,---,0.00,VWS V14.01,2013-08-28 14:30:00,
2013-08-28 10:35:00,0.0,0.0,29.98,North,0,0.0,0.0,0,0.00,,---,0.00,VWS V14.01,2013-08-28 14:35:00,
2013-08-28 10:40:00,81.0,73.5,29.98,WNW,298,0.0,5.0,78,0.00,,---,0.00,VWS V14.01,2013-08-28 14:40:00,
2013-08-28 10:45:00,81.6,73.7,29.98,WNW,300,0.0,5.0,77,0.00,,---,0.00,VWS V14.01,2013-08-28 14:45:00,
2013-08-28 10:50:00,82.0,73.3,29.98,WNW,303,7.0,9.0,75,0.00,,---,0.00,VWS V14.01,2013-08-28 14:50:00,
2013-08-28 10:55:00,82.5,74.2,29.98,WNW,303,1.0,9.0,76,0.00,,---,0.00,VWS V14.01,2013-08-28 14:55:00,
2013-08-28 11:00:00,83.0,74.7,29.98,WNW,303,0.0,0.0,76,0.00,,---,0.00,VWS V14.01,2013-08-28 15:00:00,
2013-08-28 11:05:00,83.3,74.6,29.98,WNW,303,2.0,2.0,75,0.00,,---,0.00,VWS V14.01,2013-08-28 15:05:00,
2013-08-28 11:10:00,83.7,74.5,29.99,WNW,303,1.0,4.0,74,0.00,,---,0.00,VWS V14.01,2013-08-28 15:10:00,
2013-08-28 11:15:00,84.0,74.0,29.98,WNW,302,0.0,7.0,72,0.00,,---,0.00,VWS V14.01,2013-08-28 15:15:00,
2013-08-28 11:20:00,84.3,74.3,29.98,NW,315,3.0,7.0,72,0.00,,---,0.00,VWS V14.01,2013-08-28 15:20:00,
2013-08-28 11:25:00,84.5,74.5,29.98,NW,307,2.0,7.0,72,0.00,,---,0.00,VWS V14.01,2013-08-28 15:25:00,
2013-08-28 11:30:00,84.8,74.8,29.98,WNW,303,6.0,7.0,72,0.00,,---,0.00,VWS V14.01,2013-08-28 15:30:00,
2013-08-28 11:35:00,85.0,74.1,29.98,WNW,302,4.0,7.0,70,0.00,,---,0.00,VWS V14.01,2013-08-28 15:35:00,
2013-08-28 11:40:00,85.4,74.5,29.98,West,276,1.0,7.0,70,0.00,,---,0.00,VWS V14.01,2013-08-28 15:40:00,
2013-08-28 11:45:00,85.9,74.6,29.98,West,275,0.0,7.0,69,0.00,,---,0.00,VWS V14.01,2013-08-28 15:45:00,
2013-08-28 11:50:00,86.3,75.4,29.98,West,276,0.0,7.0,70,0.00,,---,0.00,VWS V14.01,2013-08-28 15:50:00,
2013-08-28 11:55:00,86.6,75.2,29.98,West,276,0.0,7.0,69,0.00,,---,0.00,VWS V14.01,2013-08-28 15:55:00,
2013-08-28 12:00:00,86.9,75.5,29.98,West,275,0.0,7.0,69,0.00,,---,0.00,VWS V14.01,2013-08-28 16:00:00,
2013-08-28 12:05:00,87.0,75.2,29.98,WNW,291,2.0,6.0,68,0.00,,---,0.00,VWS V14.01,2013-08-28 16:05:00,
2013-08-28 12:10:00,87.2,75.4,29.98,WNW,302,2.0,6.0,68,0.00,,---,0.00,VWS V14.01,2013-08-28 16:10:00,
2013-08-28 12:15:00,87.3,75.0,29.98,NW,304,2.0,6.0,67,0.00,,---,0.00,VWS V14.01,2013-08-28 16:15:00,
2013-08-28 12:20:00,87.5,75.2,29.98,NW,304,1.0,6.0,67,0.00,,---,0.00,VWS V14.01,2013-08-28 16:20:00,
2013-08-28 12:25:00,87.8,75.5,29.98,NW,304,0.0,6.0,67,0.00,,---,0.00,VWS V14.01,2013-08-28 16:25:00,
2013-08-28 12:30:00,88.1,76.2,29.98,NW,304,0.0,6.0,68,0.00,,---,0.00,VWS V14.01,2013-08-28 16:30:00,
2013-08-28 12:35:00,88.5,76.6,29.98,South,180,0.0,3.0,68,0.00,,---,0.00,VWS V14.01,2013-08-28 16:35:00,
2013-08-28 12:40:00,88.6,74.9,29.98,NW,304,0.0,7.0,64,0.00,,---,0.00,VWS V14.01,2013-08-28 16:40:00,
2013-08-28 12:45:00,88.9,75.2,29.98,WNW,300,4.0,7.0,64,0.00,,---,0.00,VWS V14.01,2013-08-28 16:45:00,
2013-08-28 12:50:00,89.0,75.2,29.98,WNW,302,0.0,7.0,64,0.00,,---,0.00,VWS V14.01,2013-08-28 16:50:00,
2013-08-28 12:54:00,89.2,74.5,29.98,WNW,302,0.0,7.0,62,0.00,,---,0.00,VWS V14.01,2013-08-28 16:54:00,
2013-08-28 12:59:00,89.3,76.0,29.98,West,277,0.0,7.0,65,0.00,,---,0.00,VWS V14.01,2013-08-28 16:59:00,
2013-08-28 13:00:00,89.3,76.0,29.98,West,277,0.0,7.0,65,0.00,,---,0.00,VWS V14.01,2013-08-28 17:00:00,
2013-08-28 13:04:00,89.3,75.1,29.98,West,273,0.0,1.0,63,0.00,,---,0.00,VWS V14.01,2013-08-28 17:04:00,
2013-08-28 13:09:00,89.6,76.7,29.98,WSW,252,2.0,2.0,66,0.00,,---,0.00,VWS V14.01,2013-08-28 17:09:00,
2013-08-28 13:14:00,89.8,76.0,29.97,East,81,0.0,4.0,64,0.00,,---,0.00,VWS V14.01,2013-08-28 17:14:00,
2013-08-28 13:19:00,89.9,74.7,29.97,East,90,0.0,4.0,61,0.00,,---,0.00,VWS V14.01,2013-08-28 17:19:00,
2013-08-28 13:24:00,90.2,75.9,29.97,East,92,0.0,4.0,63,0.00,,---,0.00,VWS V14.01,2013-08-28 17:24:00,
2013-08-28 13:29:00,90.4,77.5,29.97,East,99,0.0,4.0,66,0.00,,---,0.00,VWS V14.01,2013-08-28 17:29:00,
2013-08-28 13:30:00,90.4,77.5,29.97,East,99,0.0,4.0,66,0.00,,---,0.00,VWS V14.01,2013-08-28 17:30:00,
2013-08-28 13:34:00,90.5,78.1,29.97,WSW,246,1.0,3.0,67,0.00,,---,0.00,VWS V14.01,2013-08-28 17:34:00,
2013-08-28 13:39:00,90.1,77.7,29.97,WSW,252,1.0,6.0,67,0.00,,---,0.00,VWS V14.01,2013-08-28 17:39:00,
2013-08-28 13:44:00,89.7,76.4,29.97,West,268,0.0,6.0,65,0.00,,---,0.00,VWS V14.01,2013-08-28 17:44:00,
2013-08-28 13:49:00,89.3,76.0,29.97,South,173,1.0,6.0,65,0.00,,---,0.00,VWS V14.01,2013-08-28 17:49:00,
2013-08-28 13:54:00,89.4,74.7,29.97,South,176,0.0,6.0,62,0.00,,---,0.00,VWS V14.01,2013-08-28 17:54:00,
2013-08-28 13:59:00,89.7,73.0,29.97,WNW,302,1.0,6.0,58,0.00,,---,0.00,VWS V14.01,2013-08-28 17:59:00,
2013-08-28 14:00:00,89.8,73.6,29.97,WNW,301,0.0,6.0,59,0.00,,---,0.00,VWS V14.01,2013-08-28 18:00:00,
2013-08-28 14:04:00,90.3,73.5,29.97,WNW,300,0.0,6.0,58,0.00,,---,0.00,VWS V14.01,2013-08-28 18:04:00,
2013-08-28 14:09:00,90.6,73.8,29.97,WNW,292,0.0,6.0,58,0.00,,---,0.00,VWS V14.01,2013-08-28 18:09:00,
2013-08-28 14:14:00,90.7,73.4,29.96,WNW,302,0.0,7.0,57,0.00,,---,0.00,VWS V14.01,2013-08-28 18:14:00,
2013-08-28 14:19:00,90.9,73.6,29.96,WNW,297,2.0,7.0,57,0.00,,---,0.00,VWS V14.01,2013-08-28 18:19:00,
2013-08-28 14:24:00,91.2,74.4,29.96,West,280,0.0,7.0,58,0.00,,---,0.00,VWS V14.01,2013-08-28 18:24:00,
2013-08-28 14:29:00,91.4,74.6,29.96,West,280,1.0,7.0,58,0.00,,---,0.00,VWS V14.01,2013-08-28 18:29:00,
2013-08-28 14:30:00,91.4,74.6,29.96,West,277,1.0,7.0,58,0.00,,---,0.00,VWS V14.01,2013-08-28 18:30:00,
2013-08-28 14:34:00,91.5,74.7,29.96,WSW,254,0.0,2.0,58,0.00,,---,0.00,VWS V14.01,2013-08-28 18:34:00,
2013-08-28 14:39:00,91.7,75.8,29.96,SSW,211,2.0,4.0,60,0.00,,---,0.00,VWS V14.01,2013-08-28 18:39:00,
2013-08-28 14:44:00,91.8,74.4,29.96,West,271,0.0,4.0,57,0.00,,---,0.00,VWS V14.01,2013-08-28 18:44:00,
2013-08-28 14:49:00,91.7,77.3,29.95,SW,235,1.0,6.0,63,0.00,,---,0.00,VWS V14.01,2013-08-28 18:49:00,
2013-08-28 14:54:00,91.7,78.3,29.95,SW,221,3.0,6.0,65,0.00,,---,0.00,VWS V14.01,2013-08-28 18:54:00,
2013-08-28 14:59:00,91.5,76.7,29.95,South,182,0.0,6.0,62,0.00,,---,0.00,VWS V14.01,2013-08-28 18:59:00,
2013-08-28 15:00:00,91.5,74.7,29.95,South,182,0.0,6.0,58,0.00,,---,0.00,VWS V14.01,2013-08-28 19:00:00,
2013-08-28 15:04:00,91.6,76.2,29.95,South,182,0.0,1.0,61,0.00,,---,0.00,VWS V14.01,2013-08-28 19:04:00,
2013-08-28 15:09:00,91.6,77.2,29.95,NNE,18,0.0,3.0,63,0.00,,---,0.00,VWS V14.01,2013-08-28 19:09:00,
2013-08-28 15:14:00,91.3,77.9,29.95,WNW,284,1.0,7.0,65,0.00,,---,0.00,VWS V14.01,2013-08-28 19:14:00,
2013-08-28 15:19:00,91.0,78.1,29.94,SSW,205,1.0,7.0,66,0.00,,---,0.00,VWS V14.01,2013-08-28 19:19:00,
2013-08-28 15:24:00,90.6,78.6,29.95,SSE,155,1.0,7.0,68,0.00,,---,0.00,VWS V14.01,2013-08-28 19:24:00,
2013-08-28 15:29:00,90.0,78.0,29.94,ESE,102,2.0,7.0,68,0.00,,---,0.00,VWS V14.01,2013-08-28 19:29:00,
2013-08-28 15:30:00,89.8,78.3,29.94,East,101,0.0,7.0,69,0.00,,---,0.00,VWS V14.01,2013-08-28 19:30:00,
2013-08-28 15:34:00,89.1,78.0,29.94,East,79,1.0,6.0,70,0.00,,---,0.00,VWS V14.01,2013-08-28 19:34:00,
2013-08-28 15:39:00,88.6,78.0,29.94,West,261,2.0,6.0,71,0.00,,---,0.00,VWS V14.01,2013-08-28 19:39:00,
2013-08-28 15:44:00,88.3,77.7,29.94,South,172,1.0,6.0,71,0.00,,---,0.00,VWS V14.01,2013-08-28 19:44:00,
2013-08-28 15:49:00,88.2,78.0,29.94,SSE,160,0.0,6.0,72,0.00,,---,0.00,VWS V14.01,2013-08-28 19:49:00,
2013-08-28 15:54:00,88.3,78.1,29.94,SE,126,1.0,6.0,72,0.00,,---,0.00,VWS V14.01,2013-08-28 19:54:00,
2013-08-28 15:59:00,88.3,78.1,29.94,WSW,257,9.0,9.0,72,0.00,,---,0.00,VWS V14.01,2013-08-28 19:59:00,
2013-08-28 16:00:00,88.3,77.7,29.94,West,261,1.0,9.0,71,0.00,,---,0.00,VWS V14.01,2013-08-28 20:00:00,
2013-08-28 16:04:00,88.2,78.0,29.94,SSE,167,1.0,4.0,72,0.00,,---,0.00,VWS V14.01,2013-08-28 20:04:00,
2013-08-28 16:09:00,88.3,77.3,29.93,SSE,157,3.0,4.0,70,0.00,,---,0.00,VWS V14.01,2013-08-28 20:09:00,
2013-08-28 16:14:00,88.3,77.7,29.93,ESE,115,1.0,4.0,71,0.00,,---,0.00,VWS V14.01,2013-08-28 20:14:00,
2013-08-28 16:19:00,87.8,77.7,29.93,East,97,0.0,6.0,72,0.00,,---,0.00,VWS V14.01,2013-08-28 20:19:00,
2013-08-28 16:24:00,87.5,77.8,29.93,ESE,107,0.0,6.0,73,0.00,,---,0.00,VWS V14.01,2013-08-28 20:24:00,
2013-08-28 16:29:00,87.4,77.7,29.93,WSW,254,0.0,10.0,73,0.00,,---,0.00,VWS V14.01,2013-08-28 20:29:00,
2013-08-28 16:30:00,87.3,77.6,29.93,WNW,282,1.0,10.0,73,0.00,,---,0.00,VWS V14.01,2013-08-28 20:30:00,
2013-08-28 16:34:00,87.1,77.8,29.92,WSW,257,0.0,5.0,74,0.00,,---,0.00,VWS V14.01,2013-08-28 20:34:00,
2013-08-28 16:39:00,87.0,77.7,29.93,SW,232,5.0,5.0,74,0.00,,---,0.00,VWS V14.01,2013-08-28 20:39:00,
2013-08-28 16:44:00,86.9,77.6,29.92,WSW,238,1.0,5.0,74,0.00,,---,0.00,VWS V14.01,2013-08-28 20:44:00,
2013-08-28 16:49:00,86.7,77.4,29.92,West,270,0.0,5.0,74,0.00,,---,0.00,VWS V14.01,2013-08-28 20:49:00,
2013-08-28 16:54:00,86.6,77.3,29.92,NNW,335,0.0,6.0,74,0.00,,---,0.00,VWS V14.01,2013-08-28 20:54:00,
2013-08-28 16:59:00,86.5,77.2,29.92,WSW,246,0.0,6.0,74,0.00,,---,0.00,VWS V14.01,2013-08-28 20:59:00,
2013-08-28 17:00:00,86.5,77.2,29.92,WSW,251,3.0,6.0,74,0.00,,---,0.00,VWS V14.01,2013-08-28 21:00:00,
2013-08-28 17:04:00,86.4,77.1,29.91,WSW,254,1.0,7.0,74,0.00,,---,0.00,VWS V14.01,2013-08-28 21:04:00,
2013-08-28 17:09:00,86.2,77.3,29.91,WNW,300,2.0,7.0,75,0.00,,---,0.00,VWS V14.01,2013-08-28 21:09:00,
2013-08-28 17:14:00,86.0,77.2,29.92,SW,223,2.0,7.0,75,0.00,,---,0.00,VWS V14.01,2013-08-28 21:14:00,
2013-08-28 17:19:00,85.9,77.1,29.91,East,83,4.0,7.0,75,0.00,,---,0.00,VWS V14.01,2013-08-28 21:19:00,
2013-08-28 17:24:00,85.7,76.9,29.91,WSW,246,0.0,7.0,75,0.00,,---,0.00,VWS V14.01,2013-08-28 21:24:00,
2013-08-28 17:29:00,85.5,77.1,29.91,North,355,0.0,7.0,76,0.00,,---,0.00,VWS V14.01,2013-08-28 21:29:00,
2013-08-28 17:30:00,85.5,77.1,29.91,North,355,0.0,7.0,76,0.00,,---,0.00,VWS V14.01,2013-08-28 21:30:00,
2013-08-28 17:34:00,85.3,76.5,29.91,West,279,5.0,5.0,75,0.00,,---,0.00,VWS V14.01,2013-08-28 21:34:00,
2013-08-28 17:39:00,85.2,76.8,29.91,East,101,2.0,5.0,76,0.00,,---,0.00,VWS V14.01,2013-08-28 21:39:00,
2013-08-28 17:46:00,85.0,76.6,29.91,SE,131,0.0,0.0,76,0.00,,---,0.00,VWS V14.01,2013-08-28 21:46:00,
2013-08-28 17:51:00,84.9,76.5,29.90,WSW,244,0.0,5.0,76,0.00,,---,0.00,VWS V14.01,2013-08-28 21:51:00,
2013-08-28 17:56:00,84.9,76.5,29.91,WSW,246,3.0,5.0,76,0.00,,---,0.00,VWS V14.01,2013-08-28 21:56:00,
2013-08-28 18:00:00,84.9,76.5,29.91,West,265,4.0,6.0,76,0.00,,---,0.00,VWS V14.01,2013-08-28 22:00:00,
2013-08-28 18:30:00,85.5,77.1,29.91,North,355,0.0,7.0,76,0.00,,---,0.00,VWS V14.01,2013-08-28 22:30:00,
2013-08-28 18:31:00,84.4,76.0,29.91,SE,127,0.0,0.0,76,0.00,,---,0.00,VWS V14.01,2013-08-28 22:31:00,
2013-08-28 18:36:00,84.3,75.9,29.91,SE,129,0.0,2.0,76,0.00,,---,0.00,VWS V14.01,2013-08-28 22:36:00,
2013-08-28 18:41:00,84.3,76.3,29.91,South,173,0.0,2.0,77,0.00,,---,0.00,VWS V14.01,2013-08-28 22:41:00,
2013-08-28 18:46:00,84.3,76.3,29.91,South,175,0.0,2.0,77,0.00,,---,0.00,VWS V14.01,2013-08-28 22:46:00,
2013-08-28 18:51:00,84.3,76.3,29.91,South,175,0.0,2.0,77,0.00,,---,0.00,VWS V14.01,2013-08-28 22:51:00,
2013-08-28 18:56:00,84.3,76.3,29.91,South,175,0.0,2.0,77,0.00,,---,0.00,VWS V14.01,2013-08-28 22:56:00,
2013-08-28 19:00:00,84.4,76.4,29.91,South,174,0.0,2.0,77,0.00,,---,0.00,VWS V14.01,2013-08-28 23:00:00,
2013-08-28 19:01:00,84.4,76.4,29.91,South,174,0.0,1.0,77,0.00,,---,0.00,VWS V14.01,2013-08-28 23:01:00,
2013-08-28 19:06:00,84.4,76.4,29.91,South,174,0.0,1.0,77,0.00,,---,0.00,VWS V14.01,2013-08-28 23:06:00,
2013-08-28 19:11:00,84.4,76.4,29.91,South,174,0.0,1.0,77,0.00,,---,0.00,VWS V14.01,2013-08-28 23:11:00,
2013-08-28 19:16:00,84.2,76.2,29.91,SW,218,0.0,2.0,77,0.00,,---,0.00,VWS V14.01,2013-08-28 23:16:00,
2013-08-28 19:21:00,84.2,76.2,29.91,SW,218,0.0,2.0,77,0.00,,---,0.00,VWS V14.01,2013-08-28 23:21:00,
2013-08-28 19:26:00,82.2,75.4,29.91,WSW,250,5.0,6.0,80,0.00,,---,0.00,VWS V14.01,2013-08-28 23:26:00,
2013-08-28 19:30:00,82.3,75.5,29.91,West,275,2.0,6.0,80,0.00,,---,0.00,VWS V14.01,2013-08-28 23:30:00,
2013-08-28 19:34:00,82.2,75.4,29.92,West,268,2.0,2.0,80,0.00,,---,0.00,VWS V14.01,2013-08-28 23:34:00,
2013-08-28 19:39:00,82.0,74.8,29.92,SW,234,4.0,5.0,79,0.00,,---,0.00,VWS V14.01,2013-08-28 23:39:00,
2013-08-28 19:44:00,81.9,74.8,29.92,SSW,213,3.0,5.0,79,0.00,,---,0.00,VWS V14.01,2013-08-28 23:44:00,
2013-08-28 20:00:00,81.3,74.2,29.92,SW,234,3.0,6.0,79,0.00,,---,0.00,VWS V14.01,2013-08-29 00:00:00,
2013-08-28 20:07:00,80.9,74.2,29.92,WSW,241,3.0,3.0,80,0.00,,---,0.00,VWS V14.01,2013-08-29 00:07:00,
2013-08-28 20:12:00,80.7,74.0,29.92,WSW,246,1.0,3.0,80,0.00,,---,0.00,VWS V14.01,2013-08-29 00:12:00,
2013-08-28 20:17:00,80.5,74.1,29.92,SW,230,2.0,3.0,81,0.00,,---,0.00,VWS V14.01,2013-08-29 00:17:00,
2013-08-28 20:22:00,80.2,73.8,29.92,WSW,241,2.0,4.0,81,0.00,,---,0.00,VWS V14.01,2013-08-29 00:22:00,
2013-08-28 20:27:00,80.1,73.8,29.93,SW,227,4.0,6.0,81,0.00,,---,0.00,VWS V14.01,2013-08-29 00:27:00,
2013-08-28 20:30:00,79.9,73.6,29.93,WSW,246,4.0,6.0,81,0.00,,---,0.00,VWS V14.01,2013-08-29 00:30:00,
2013-08-28 20:32:00,79.8,73.4,29.93,SSW,210,4.0,4.0,81,0.00,,---,0.00,VWS V14.01,2013-08-29 00:32:00,
2013-08-28 20:37:00,79.7,73.7,29.93,WSW,250,2.0,4.0,82,0.00,,---,0.00,VWS V14.01,2013-08-29 00:37:00,
2013-08-28 20:42:00,79.6,73.6,29.93,SW,233,2.0,2.0,82,0.00,,---,0.00,VWS V14.01,2013-08-29 00:42:00,
2013-08-28 20:47:00,79.5,73.5,29.93,SW,227,0.0,4.0,82,0.00,,---,0.00,VWS V14.01,2013-08-29 00:47:00,
2013-08-28 20:52:00,79.4,73.4,29.93,SW,214,3.0,5.0,82,0.00,,---,0.00,VWS V14.01,2013-08-29 00:52:00,
2013-08-28 21:00:00,79.2,73.2,29.93,WSW,247,1.0,5.0,82,0.00,,---,0.00,VWS V14.01,2013-08-29 01:00:00,
2013-08-28 21:11:00,79.0,73.8,29.93,SW,223,2.0,2.0,84,0.00,,---,0.00,VWS V14.01,2013-08-29 01:11:00,
2013-08-28 21:16:00,78.8,73.6,29.93,SW,215,3.0,4.0,84,0.00,,---,0.00,VWS V14.01,2013-08-29 01:16:00,
2013-08-28 21:21:00,78.7,73.8,29.93,West,261,1.0,4.0,85,0.00,,---,0.00,VWS V14.01,2013-08-29 01:21:00,
2013-08-28 21:26:00,78.6,73.7,29.93,WSW,257,2.0,4.0,85,0.00,,---,0.00,VWS V14.01,2013-08-29 01:26:00,
2013-08-28 21:30:00,78.5,73.6,29.93,SW,236,2.0,4.0,85,0.00,,---,0.00,VWS V14.01,2013-08-29 01:30:00,
2013-08-28 21:31:00,78.5,73.6,29.93,West,263,2.0,2.0,85,0.00,,---,0.00,VWS V14.01,2013-08-29 01:31:00,
2013-08-28 21:36:00,78.5,73.6,29.93,WSW,237,3.0,3.0,85,0.00,,---,0.00,VWS V14.01,2013-08-29 01:36:00,
2013-08-28 21:41:00,78.5,73.6,29.93,West,265,3.0,3.0,85,0.00,,---,0.00,VWS V14.01,2013-08-29 01:41:00,
2013-08-28 22:00:00,78.5,74.0,29.93,SSW,196,4.0,5.0,86,0.00,,---,0.00,VWS V14.01,2013-08-29 02:00:00,
2013-08-28 22:30:00,78.6,74.1,29.94,WSW,237,6.0,6.0,86,0.00,,---,0.00,VWS V14.01,2013-08-29 02:30:00,
2013-08-28 23:00:00,78.6,74.1,29.93,WSW,237,6.0,6.0,86,0.00,,---,0.00,VWS V14.01,2013-08-29 03:00:00,
2013-08-28 23:30:00,78.6,74.1,29.93,WSW,237,6.0,6.0,86,0.00,,---,0.00,VWS V14.01,2013-08-29 03:30:00,